Location: Marysville Observatory
(48.1092°N, 122.1645°W)
Time: 04:16:54
(UTC-07:00)

Amateur Radio Satellites - All Passes

Search period start: 01 September 2014 03:46
Search period end: 02 September 2014 03:46
Location: Marysville Observatory, 48.1092°N, 122.1645°W

Satellite Date Start Highest point End Downlink Frequencies (MHz)
Time Altitude Azimuth
KITSAT 1 01 Sep 03:53:07 03:59:13 23° 351° (N) 04:05:20 435.175 FM
JAS-1B 01 Sep 03:54:18 04:01:19 89° 287° (WNW) 04:07:16 435.800 - 435.900 CW/SSB
ITAMSAT 1 01 Sep 04:05:01 04:10:08 59° 290° (WNW) 04:15:13 435.822 SSB
Oscar 16 01 Sep 04:05:03 04:09:28 29° 297° (WNW) 04:13:53 437.025 USB, Beacon 2401.1428
Uribyol 2 01 Sep 04:14:43 04:19:41 47° 292° (WNW) 04:24:38 436.500 FM
TMSAT-1 01 Sep 04:21:34 04:26:54 75° 103° (ESE) 04:32:11 436.925 FM
AO-27 01 Sep 04:34:49 04:39:27 34° 296° (WNW) 04:44:05 436.795 MHz FM
Uosat F 01 Sep 04:37:43 04:41:37 22° 92° (E) 04:45:29 435.120 FM
SO-50 01 Sep 04:54:26 04:58:53 58° 313° (NW) 05:03:28 436.795 FM
UOSAT-12 01 Sep 05:06:23 05:10:04 24° 114° (ESE) 05:13:48 437.025 FM, 437.400 FM
Gurwin Techsat 1B 01 Sep 05:11:15 05:16:02 35° 295° (WNW) 05:20:48 435.225 FM
Oscar 19 01 Sep 05:12:15 05:12:46 10° 310° (NW) 05:13:17 437.125 CW, 437.150 USB
OPAL 01 Sep 05:13:32 05:18:21 42° 260° (W) 05:23:15 ?
STRAND 1 01 Sep 05:23:10 05:26:09 16° 55° (NE) 05:29:08 ?
AO-7 01 Sep 05:26:25 05:34:36 58° 103° (ESE) 05:42:43 29.400 - 29.500 MHz
AO-Echo 01 Sep 05:26:51 05:28:10 11° 306° (NW) 05:29:30 ?
Saudisat 1A 01 Sep 05:31:55 05:35:21 22° 32° (NNE) 05:38:47 436.775 MHz
JAS-1B 01 Sep 05:46:04 05:50:50 20° 311° (NW) 05:55:10 435.800 - 435.900 CW/SSB
ITAMSAT 1 01 Sep 05:47:23 05:48:36 11° 310° (NW) 05:49:48 435.822 SSB
KITSAT 1 01 Sep 05:51:07 05:57:43 26° 20° (NNE) 06:04:18 435.175 FM
TMSAT-1 01 Sep 06:02:34 06:06:15 20° 302° (WNW) 06:09:57 436.925 FM
JAS-2 01 Sep 06:09:37 06:13:32 21° 92° (E) 06:17:36 435.800 - 435.900 CW/SSB, 435.910 FM
Uosat F 01 Sep 06:15:51 06:20:43 53° 291° (WNW) 06:25:35 435.120 FM
Hamsat 01 Sep 06:20:36 06:24:09 24° 93° (E) 06:27:40 145.90 MHz
SO-50 01 Sep 06:37:29 06:40:26 17° 336° (NNW) 06:43:27 436.795 FM
UOSAT-12 01 Sep 06:45:18 06:49:53 57° 314° (NW) 06:54:34 437.025 FM, 437.400 FM
STRAND 1 01 Sep 06:59:33 07:04:39 89° 251° (WSW) 07:09:47 ?
RS-15 01 Sep 07:10:01 07:19:39 37° 108° (ESE) 07:29:10 29.354 - 29.394 USB, Beacon 29.352 USB
Saudisat 1A 01 Sep 07:11:02 07:15:29 82° 233° (SW) 07:19:53 436.775 MHz
AO-7 01 Sep 07:19:37 07:27:09 41° 304° (NW) 07:34:39 29.400 - 29.500 MHz
SO-67 01 Sep 07:41:53 07:44:45 23° 94° (E) 07:47:35 435.3500 MHz FM
KITSAT 1 01 Sep 07:46:52 07:54:54 61° 47° (NE) 08:02:52 435.175 FM
JAS-2 01 Sep 07:53:56 07:59:04 60° 289° (WNW) 08:04:33 435.800 - 435.900 CW/SSB, 435.910 FM
Hamsat 01 Sep 07:56:11 08:00:15 39° 291° (WNW) 08:04:16 145.90 MHz
SO-50 01 Sep 08:22:03 08:22:58 11° 1° (N) 08:23:53 436.795 FM
UOSAT-12 01 Sep 08:27:58 08:31:03 17° 336° (NNW) 08:34:09 437.025 FM, 437.400 FM
STRAND 1 01 Sep 08:42:16 08:44:35 13° 273° (W) 08:46:55 ?
Saudisat 1A 01 Sep 08:52:52 08:54:20 11° 251° (WSW) 08:55:47 436.775 MHz
HO-68 01 Sep 09:08:42 09:14:21 24° 91° (E) 09:19:57 435.675 MHz FM
AO-7 01 Sep 09:14:25 09:17:43 13° 328° (NNW) 09:21:01 29.400 - 29.500 MHz
SO-67 01 Sep 09:14:52 09:17:46 25° 292° (WNW) 09:20:39 435.3500 MHz FM
RS-15 01 Sep 09:20:07 09:31:09 75° 312° (NW) 09:42:09 29.354 - 29.394 USB, Beacon 29.352 USB
JAS-2 01 Sep 09:42:29 09:43:14 10° 309° (NW) 09:43:59 435.800 - 435.900 CW/SSB, 435.910 FM
KITSAT 1 01 Sep 09:42:41 09:50:00 40° 249° (WSW) 09:57:18 435.175 FM
UKube-1 01 Sep 09:50:44 09:54:04 21° 93° (E) 09:57:24 145.840 MHz, 145.915 MHz
Oscar 11 01 Sep 09:55:19 09:58:11 17° 90° (E) 10:01:02 145.825 FM, Beacon 2401.500 USB
SO-50 01 Sep 10:02:18 10:05:28 17° 25° (NNE) 10:08:40 436.795 FM
UOSAT-12 01 Sep 10:12:03 10:13:09 11° 0° (N) 10:14:15 437.025 FM, 437.400 FM
FUNcube-1 01 Sep 10:25:52 10:28:36 16° 89° (E) 10:31:21 145.950 - 145.970 MHz USB
ISS 01 Sep 10:43:32 10:46:34 33° 145° (SE) 10:49:36 145.800 FM
HO-68 01 Sep 10:55:35 11:02:45 76° 291° (WNW) 11:09:53 435.675 MHz FM
UKube-1 01 Sep 11:26:21 11:30:29 44° 291° (WNW) 11:34:37 145.840 MHz, 145.915 MHz
Oscar 11 01 Sep 11:30:26 11:34:45 56° 288° (WNW) 11:39:01 145.825 FM, Beacon 2401.500 USB
RS-15 01 Sep 11:35:38 11:45:33 37° 342° (NNW) 11:55:33 29.354 - 29.394 USB, Beacon 29.352 USB
SO-50 01 Sep 11:42:16 11:46:59 59° 47° (NE) 11:51:46 436.795 FM
UOSAT-12 01 Sep 11:52:05 11:55:15 17° 25° (NNE) 11:58:24 437.025 FM, 437.400 FM
FUNcube-1 01 Sep 12:00:56 12:05:26 67° 287° (WNW) 12:09:59 145.950 - 145.970 MHz USB
Oscar 16 01 Sep 12:09:11 12:12:19 16° 56° (NE) 12:15:27 437.025 USB, Beacon 2401.1428
ISS 01 Sep 12:19:52 12:23:11 63° 343° (NNW) 12:26:30 145.800 FM
Uribyol 2 01 Sep 12:22:32 12:23:30 11° 50° (NE) 12:24:27 436.500 FM
AO-27 01 Sep 12:40:34 12:43:17 15° 54° (NE) 12:46:00 436.795 MHz FM
HO-68 01 Sep 12:44:35 12:49:23 20° 312° (NW) 12:54:12 435.675 MHz FM
JAS-1B 01 Sep 12:51:22 12:59:12 32° 57° (ENE) 13:06:12 435.800 - 435.900 CW/SSB
Oscar 19 01 Sep 13:10:51 13:15:47 47° 68° (ENE) 13:20:45 437.125 CW, 437.150 USB
Gurwin Techsat 1B 01 Sep 13:19:01 13:21:55 15° 54° (NE) 13:24:50 435.225 FM
SO-50 01 Sep 13:23:26 13:27:15 24° 246° (WSW) 13:31:04 436.795 FM
AO-Echo 01 Sep 13:24:03 13:28:21 31° 65° (ENE) 13:32:34 ?
MaSat-1 01 Sep 13:25:27 13:30:22 63° 115° (ESE) 13:35:30 437.345 MHz
UOSAT-12 01 Sep 13:31:40 13:36:23 59° 47° (NE) 13:41:01 437.025 FM, 437.400 FM
FUNcube-1 01 Sep 13:40:38 13:41:00 10° 305° (NW) 13:41:21 145.950 - 145.970 MHz USB
Oscar 16 01 Sep 13:45:48 13:50:58 88° 255° (WSW) 13:56:13 437.025 USB, Beacon 2401.1428
ITAMSAT 1 01 Sep 13:47:35 13:52:29 46° 68° (ENE) 13:57:25 435.822 SSB
RS-15 01 Sep 13:51:41 14:01:36 37° 17° (NNE) 14:11:43 29.354 - 29.394 USB, Beacon 29.352 USB
Uribyol 2 01 Sep 13:56:53 14:01:55 58° 70° (ENE) 14:07:00 436.500 FM
ISS 01 Sep 13:57:01 14:00:14 44° 4° (N) 14:03:27 145.800 FM
TMSAT-1 01 Sep 14:07:29 14:11:49 26° 61° (ENE) 14:16:09 436.925 FM
AO-27 01 Sep 14:16:50 14:22:01 81° 73° (ENE) 14:27:13 436.795 MHz FM
AO-7 01 Sep 14:38:38 14:45:27 30° 50° (NE) 14:52:15 29.400 - 29.500 MHz
JAS-1B 01 Sep 14:39:22 14:49:05 81° 255° (WSW) 14:57:37 435.800 - 435.900 CW/SSB
Oscar 19 01 Sep 14:50:59 14:55:20 27° 267° (W) 14:59:44 437.125 CW, 437.150 USB
Gurwin Techsat 1B 01 Sep 14:55:47 15:01:05 82° 74° (ENE) 15:06:26 435.225 FM
AO-Echo 01 Sep 15:02:24 15:07:03 38° 262° (W) 15:11:35 ?
MaSat-1 01 Sep 15:03:29 15:07:48 27° 315° (NW) 15:12:11 437.345 MHz
UOSAT-12 01 Sep 15:12:28 15:16:11 23° 246° (WSW) 15:19:51 437.025 FM, 437.400 FM
ITAMSAT 1 01 Sep 15:27:49 15:32:11 27° 266° (W) 15:36:35 435.822 SSB
Oscar 16 01 Sep 15:28:43 15:31:06 13° 274° (W) 15:33:30 437.025 USB, Beacon 2401.1428
ISS 01 Sep 15:33:50 15:37:11 89° 207° (SSW) 15:40:31 145.800 FM
Uribyol 2 01 Sep 15:37:51 15:41:47 22° 268° (W) 15:45:43 436.500 FM
TMSAT-1 01 Sep 15:46:18 15:51:27 52° 260° (W) 15:56:38 436.925 FM
Uosat F 01 Sep 15:54:13 15:58:57 45° 68° (ENE) 16:03:43 435.120 FM
AO-27 01 Sep 15:59:12 16:02:11 15° 272° (W) 16:05:10 436.795 MHz FM
Sapphire 01 Sep 16:02:14 16:05:44 18° 105° (ESE) 16:09:16 437.095 MHz 1200 baud AX-25 AFSK
RS-15 01 Sep 16:05:03 16:16:06 73° 47° (NE) 16:27:32 29.354 - 29.394 USB, Beacon 29.352 USB
JAS-2 01 Sep 16:27:47 16:30:57 16° 56° (NE) 16:34:00 435.800 - 435.900 CW/SSB, 435.910 FM
AO-7 01 Sep 16:29:05 16:37:27 83° 251° (WSW) 16:45:50 29.400 - 29.500 MHz
PCSat 01 Sep 16:29:57 16:34:40 32° 111° (ESE) 16:39:25 145.825 MHz
JAS-1B 01 Sep 16:33:41 16:40:33 22° 273° (W) 16:46:56 435.800 - 435.900 CW/SSB
Gurwin Techsat 1B 01 Sep 16:38:36 16:41:44 16° 272° (W) 16:44:52 435.225 FM
ISS 01 Sep 17:11:08 17:13:34 19° 221° (SW) 17:15:59 145.800 FM
Hamsat 01 Sep 17:17:22 17:21:03 28° 66° (ENE) 17:24:46 145.90 MHz
OPAL 01 Sep 17:19:33 17:24:24 37° 99° (E) 17:29:13 ?
Uosat F 01 Sep 17:33:44 17:37:56 27° 266° (W) 17:42:09 435.120 FM
Sapphire 01 Sep 17:43:04 17:48:30 82° 305° (NW) 17:53:58 437.095 MHz 1200 baud AX-25 AFSK
JAS-2 01 Sep 18:09:28 18:15:26 85° 74° (ENE) 18:20:50 435.800 - 435.900 CW/SSB, 435.910 FM
PCSat 01 Sep 18:12:39 18:17:54 50° 311° (NW) 18:23:12 145.825 MHz
RS-15 01 Sep 18:17:55 18:27:47 40° 251° (WSW) 18:38:01 29.354 - 29.394 USB, Beacon 29.352 USB
SO-67 01 Sep 18:19:10 18:21:18 16° 64° (ENE) 18:23:27 435.3500 MHz FM
AO-7 01 Sep 18:25:46 18:31:28 20° 272° (W) 18:37:12 29.400 - 29.500 MHz
Hamsat 01 Sep 18:52:57 18:56:54 34° 264° (W) 19:00:55 145.90 MHz
OPAL 01 Sep 18:58:31 19:03:15 36° 298° (WNW) 19:07:57 ?
STRAND 1 01 Sep 19:07:08 19:11:12 23° 93° (E) 19:15:15 ?
Sapphire 01 Sep 19:28:40 19:32:46 21° 327° (NNW) 19:36:54 437.095 MHz 1200 baud AX-25 AFSK
HO-68 01 Sep 19:41:29 19:47:23 29° 55° (NE) 19:53:18 435.675 MHz FM
SO-67 01 Sep 19:50:45 19:54:03 41° 262° (W) 19:57:23 435.3500 MHz FM
JAS-2 01 Sep 19:57:52 20:01:09 15° 271° (W) 20:04:19 435.800 - 435.900 CW/SSB, 435.910 FM
PCSat 01 Sep 19:59:24 20:02:39 16° 335° (NNW) 20:05:55 145.825 MHz
MaSat-1 01 Sep 20:04:52 20:05:47 11° 27° (NNE) 20:06:42 437.345 MHz
STRAND 1 01 Sep 20:45:44 20:50:42 52° 291° (WNW) 20:55:38 ?
UKube-1 01 Sep 20:49:34 20:53:21 30° 65° (ENE) 20:57:09 145.840 MHz, 145.915 MHz
Oscar 11 01 Sep 20:53:49 20:57:09 22° 63° (ENE) 21:00:30 145.825 FM, Beacon 2401.500 USB
Sapphire 01 Sep 21:17:30 21:18:25 10° 353° (N) 21:19:19 437.095 MHz 1200 baud AX-25 AFSK
Saudisat 1A 01 Sep 21:24:47 21:25:21 10° 108° (ESE) 21:25:55 436.775 MHz
FUNcube-1 01 Sep 21:26:07 21:29:06 19° 61° (ENE) 21:32:07 145.950 - 145.970 MHz USB
HO-68 01 Sep 21:27:26 21:34:33 72° 255° (WSW) 21:41:43 435.675 MHz FM
MaSat-1 01 Sep 21:39:50 21:44:17 38° 50° (NE) 21:48:12 437.345 MHz
KITSAT 1 01 Sep 22:21:18 22:27:10 23° 103° (ESE) 22:33:03 435.175 FM
UKube-1 01 Sep 22:25:38 22:29:31 32° 263° (W) 22:33:25 145.840 MHz, 145.915 MHz
Oscar 11 01 Sep 22:28:54 22:33:04 46° 261° (W) 22:37:17 145.825 FM, Beacon 2401.500 USB
Saudisat 1A 01 Sep 22:59:44 23:04:08 75° 126° (SE) 23:08:34 436.775 MHz
FUNcube-1 01 Sep 23:01:01 23:05:08 52° 260° (W) 23:09:21 145.950 - 145.970 MHz USB
Sapphire 01 Sep 23:01:52 23:04:27 13° 20° (NNE) 23:07:01 437.095 MHz 1200 baud AX-25 AFSK
MaSat-1 01 Sep 23:17:11 23:21:08 29° 253° (WSW) 23:24:38 437.345 MHz
HO-68 01 Sep 23:20:00 23:23:33 14° 275° (W) 23:27:06 435.675 MHz FM
PCSat 01 Sep 23:30:50 23:34:24 17° 28° (NNE) 23:37:57 145.825 MHz
AO-40 01 Sep 23:46:05 02:00:40 18° 125° (SE) 03:10:44 Beacon 2401.320
KITSAT 1 02 Sep 00:13:25 00:21:32 88° 124° (SE) 00:29:41 435.175 FM
Saudisat 1A 02 Sep 00:40:40 00:44:12 23° 327° (NNW) 00:47:44 436.775 MHz
Sapphire 02 Sep 00:44:29 00:49:31 36° 44° (NE) 00:54:31 437.095 MHz 1200 baud AX-25 AFSK
PCSat 02 Sep 01:13:37 01:19:00 58° 51° (NE) 01:24:21 145.825 MHz
Oscar 19 02 Sep 01:20:47 01:22:51 12° 86° (E) 01:24:54 437.125 CW, 437.150 USB
Oscar 16 02 Sep 01:54:25 01:58:43 25° 93° (E) 02:02:58 437.025 USB, Beacon 2401.1428
ITAMSAT 1 02 Sep 01:58:51 02:00:45 12° 86° (E) 02:02:39 435.822 SSB
Uribyol 2 02 Sep 02:07:15 02:10:17 16° 88° (E) 02:13:19 436.500 FM
KITSAT 1 02 Sep 02:10:43 02:17:56 34° 329° (NNW) 02:25:11 435.175 FM
JAS-1B 02 Sep 02:23:44 02:28:45 22° 87° (E) 02:33:17 435.800 - 435.900 CW/SSB
Saudisat 1A 02 Sep 02:25:06 02:25:24 10° 350° (N) 02:25:42 436.775 MHz
AO-27 02 Sep 02:26:57 02:30:56 22° 92° (E) 02:34:55 436.795 MHz FM
Sapphire 02 Sep 02:27:54 02:33:06 47° 244° (WSW) 02:38:15 437.095 MHz 1200 baud AX-25 AFSK
PCSat 02 Sep 02:57:37 03:02:05 26° 250° (WSW) 03:06:31 145.825 MHz
Oscar 19 02 Sep 02:57:46 03:03:01 83° 104° (ESE) 03:08:13 437.125 CW, 437.150 USB
OPAL 02 Sep 03:01:29 03:04:48 18° 53° (NE) 03:08:09 ?
AO-Echo 02 Sep 03:05:29 03:10:04 49° 100° (E) 03:14:39 ?
Gurwin Techsat 1B 02 Sep 03:08:55 03:13:16 25° 92° (E) 03:17:34 435.225 FM
Oscar 16 02 Sep 03:33:18 03:38:20 50° 291° (WNW) 03:43:20 437.025 USB, Beacon 2401.1428
ITAMSAT 1 02 Sep 03:35:51 03:41:05 81° 104° (ESE) 03:46:17 435.822 SSB
